MPEC 2005-K61 : 2005 KP9

The following Minor Planet Electronic Circular may be linked-to from your own Web pages, but must not otherwise be redistributed electronically.


Read MPEC 2005-K60 Read MPEC 2005-L01


M.P.E.C. 2005-K61                                Issued 2005 May 31, 10:02 UT

     The Minor Planet Electronic Circulars contain information on unusual
         minor planets and routine data on comets.  They are published
   on behalf of Commission 20 of the International Astronomical Union by the
          Minor Planet Center, Smithsonian Astrophysical Observatory,
                          Cambridge, MA 02138, U.S.A.

                  Supported in part by the Brinson Foundation
             Prepared using the Tamkin Foundation Computer Network

                              MPC@CFA.HARVARD.EDU
          URL http://cfa-www.harvard.edu/iau/mpc.html  ISSN 1523-6714

                                   2005 KP9

Observations:
     K05K09P* C2005 05 30.39561 16 43 17.11 +10 22 47.8          18.0 V EK061703
     K05K09P  C2005 05 30.40854 16 43 16.39 +10 21 07.0          18.6 V EK061703
     K05K09P  C2005 05 30.41498 16 43 16.06 +10 20 18.8          18.3 V EK061703
     K05K09P  C2005 05 30.44558 16 43 14.59 +10 16 23.4          18.2 V EK061703
     K05K09P  C2005 05 30.44629 16 43 14.55 +10 16 18.6          18.7 V EK061703
     K05K09P  C2005 05 30.44698 16 43 14.48 +10 16 13.1          18.0 V EK061703
     K05K09P  C2005 05 30.44767 16 43 14.52 +10 16 08.1          18.6 V EK061703
     K05K09P  C2005 05 30.44977 16 43 14.37 +10 15 51.9          18.3 V EK061703
     K05K09P  C2005 05 30.45047 16 43 14.44 +10 15 46.6          18.4 V EK061703
     K05K09P  C2005 05 30.46329 16 43 13.76 +10 14 08.4          18.6 V EK061703
     K05K09P  C2005 05 30.46417 16 43 13.76 +10 14 02.3          17.9 V EK061703
     K05K09P  C2005 05 30.46503 16 43 13.65 +10 13 54.5          18.5 V EK061703
     K05K09P  C2005 05 30.46591 16 43 13.62 +10 13 47.7          18.2 V EK061703
     K05K09P  C2005 05 30.47905 16 43 16.81 +10 13 16.9          18.3 R EK061474
     K05K09P  C2005 05 30.48044 16 43 16.73 +10 13 05.5          18.0 R EK061474
     K05K09P  C2005 05 30.48113 16 43 16.68 +10 13 00.6          19.0 R EK061474
     K05K09P  C2005 05 30.48183 16 43 16.65 +10 12 54.9          17.8 R EK061474
     K05K09P  C2005 05 30.61343 16 43 10.09 +09 56 13.2          18.0 R EK061474
     K05K09P  C2005 05 30.61412 16 43 10.04 +09 56 08.0          18.4 R EK061474
     K05K09P  C2005 05 30.61481 16 43 10.04 +09 56 02.5          17.5 R EK061474
     K05K09P  C2005 05 30.66314 16 43 08.34 +09 49 46.0          18.2 R EK061E12
     K05K09P  C2005 05 30.66627 16 43 08.17 +09 49 21.8          18.5 R EK061E12
     K05K09P  C2005 05 30.83307 16 43 05.46 +09 26 59.6          17.9 V EK061A50
     K05K09P  C2005 05 30.83459 16 43 05.39 +09 26 47.3          18.2 V EK061A50
     K05K09P  C2005 05 30.83537 16 43 05.30 +09 26 39.7          18.2 V EK061A50
     K05K09P  C2005 05 30.83613 16 43 05.28 +09 26 35.3          17.8 V EK061A50
     K05K09P  C2005 05 30.83690 16 43 05.24 +09 26 31.5          18.3 V EK061A50
     K05K09P  C2005 05 30.83844 16 43 05.21 +09 26 18.0          18.1 V EK061A50
     K05K09P  C2005 05 30.83920 16 43 05.09 +09 26 10.5          17.9 V EK061A50
     K05K09P  C2005 05 30.94772 16 43 01.18 +09 12 24.8                 EK061J95
     K05K09P  C2005 05 30.95204 16 43 00.99 +09 11 51.8                 EK061J95
     K05K09P  C2005 05 30.95676 16 43 00.73 +09 11 15.9          18.5 R EK061J95
     K05K09P 2C2005 05 31.00444 16 42 58.31 +09 05 15.6          17.9 R EK061012
     K05K09P 2C2005 05 31.00663 16 42 58.13 +09 04 57.5          18.0 R EK061012
     K05K09P 2C2005 05 31.00803 16 42 58.06 +09 04 46.8          18.7 R EK061012
     K05K09P 2C2005 05 31.00942 16 42 58.03 +09 04 36.8          18.4 R EK061012
     K05K09P 2C2005 05 31.01220 16 42 57.84 +09 04 14.6          18.3 R EK061012
     K05K09P 2C2005 05 31.01360 16 42 57.77 +09 04 04.0          18.8 R EK061012
     K05K09P 2C2005 05 31.01499 16 42 57.79 +09 03 54.1          18.3 R EK061012
     K05K09P  C2005 05 31.08387 16 42 54.70 +08 55 07.8                 EK061J95
     K05K09P  C2005 05 31.09098 16 42 54.38 +08 54 13.9          18.7 R EK061J95
     K05K09P  C2005 05 31.11053 16 42 55.28 +08 52 49.5          18.1 R EK061I77
     K05K09P  C2005 05 31.11156 16 42 55.22 +08 52 42.1          18.2 R EK061I77
     K05K09P  C2005 05 31.11322 16 42 55.09 +08 52 29.4          18.0 R EK061I77
     K05K09P  C2005 05 31.12008 16 42 56.95 +08 50 39.6          18.2 R EK061734
     K05K09P  C2005 05 31.12164 16 42 56.89 +08 50 28.0          18.6 R EK061734
     K05K09P  C2005 05 31.12319 16 42 56.82 +08 50 16.3          18.2 R EK061734
     K05K09P 2C2005 05 31.15413 16 42 55.92 +08 46 27.0          18.0 R EK061H06
     K05K09P 2C2005 05 31.15872 16 42 55.70 +08 45 51.4          18.1 R EK061H06
     K05K09P 2C2005 05 31.16358 16 42 55.49 +08 45 14.1          18.3 R EK061H06
     K05K09P 3C2005 05 31.18561 16 42 54.44 +08 42 27.8          18.3 V EK061H06
     K05K09P 3C2005 05 31.19155 16 42 54.16 +08 41 43.2          18.6 V EK061H06
     K05K09P 3C2005 05 31.19745 16 42 53.91 +08 40 57.9          18.4 V EK061H06
     K05K09P  C2005 05 31.24575 16 42 51.72 +08 34 51.5          18.2 R EK061854
     K05K09P  C2005 05 31.24671 16 42 51.66 +08 34 44.4          18.2 R EK061854
     K05K09P  C2005 05 31.24863 16 42 51.56 +08 34 29.3          18.4 R EK061854

Observer details:
012 Uccle.  Observer T. Pauwels.  0.85-m f/2.5 Schmidt + 3Kx2K CCD.
474 Mount John Observatory, Lake Tekapo.  Observers A. C. Gilmore,
    P. M. Kilmartin.  Measurer P. M. Kilmartin.  1.0-m f/7.7 reflector + CCD.
703 Catalina Sky Survey.  Observer E. J. Christensen.  Measurers E. C. Beshore,
    C. M. Casey, E. J. Christensen, G. J. Garradd, A. D. Grauer, R. E. Hill,
    S. M. Larson, R. H. McNaught.  0.68-m Schmidt + CCD.
734 Farpoint Observatory.  Observer G. Hug.  Measurer D. Tibbets.  0.7-m
    reflector + CCD.
854 Sabino Canyon Observatory, Tucson.  Observer J. E. McGaha.  0.36-m f/10.0
    Schmidt-Cassegrain + CCD.
A50 Andrushivka Astronomical Observatory.  Observer O. Gerashchenko.  0.6-m
    f/2.0 reflector + CCD.
E12 Siding Spring Survey.  Observer R. H. McNaught.  Measurers E. C. Beshore,
    C. M. Casey, E. J. Christensen, G. J. Garradd, A. D. Grauer, R. E. Hill,
    S. M. Larson, R. H. McNaught.  0.5-m Uppsala Schmidt + CCD.
H06 New Mexico Skies Observatory.  Observers J. Sue, R. Hutsebaut.  0.25-m
    reflector + CCD.
I77 CEAMIG-REA Observatory, Belo Horizonte.  Observers C. Jacques, E. Pimentel.
    Measurer C. Jacques.  0.30-m f/3.0 Schmidt-Cassegrain + CCD.
J95 Great Shefford.  Observer P. Birtwhistle.  0.30-m f/6.3 Schmidt-Cassegrain
    + CCD.

Orbital elements:
2005 KP9
Epoch 2005 May 30.0 TT = JDT 2453520.5                  MPC
M  19.14254              (2000.0)            P               Q
n   0.45374146     Peri.  122.50525     -0.86495503     +0.42039537
a   1.6772472      Node    83.66913     -0.50052201     -0.76234536
e   0.3613385      Incl.   16.00748     +0.03647622     -0.49203382
P   2.17           H   21.0           G   0.15
From 56 observations 2005 May 30-31.

Ephemeris:
2005 KP9                 a,e,i = 1.68, 0.36, 16                  q = 1.0712
Date    TT    R. A. (2000) Decl.     Delta      r     Elong.  Phase     V
2005 05 30    16 43.53   +11 13.5    0.157    1.149   146.8    28.9    18.6
2005 06 09    16 38.50   -08 52.7    0.176    1.186   164.2    13.5    18.4
2005 06 19    16 36.21   -23 51.6    0.219    1.228   163.1    14.0    18.9
2005 06 29    16 38.10   -33 14.1    0.280    1.273   153.2    21.1    19.8
2005 07 09    16 44.50   -38 44.9    0.355    1.321   144.4    26.6    20.6
2005 07 19    16 55.24   -41 53.6    0.440    1.372   137.2    30.2    21.2
2005 07 29    17 09.54   -43 35.4    0.533    1.423   130.9    32.7    21.8

Timothy B. Spahr             (C) Copyright 2005 MPC           M.P.E.C. 2005-K61

Read MPEC 2005-K60 Read MPEC 2005-L01


Our Web policy. Index to the CBAT/MPC/ICQ pages.

MPC